User: anonymous
Location: Brno
(49.2000°N, 16.6330°E)
Time: 10:14:14
(UTC+02:00)
Language:

RESURS DK-1 - Orbit

View from above orbital plane
View from above orbital plane
View from above satellite
View from above satellite

Ground track
Ground track

The orbit data is extracted from the following two-line orbital elements,

1 29228U 06021A   14233.11937115  .00000363  00000-0  36131-4 0  1524
2 29228 069.9359 199.3122 0003022 160.8167 325.4501 15.00759260453310
Epoch (UTC): 21 August 2014 02:51:53
Eccentricity: 0.0003022
inclination: 69.9359°
perigee height: 562 km
apogee height: 566 km
right ascension of ascending node: 199.3122°
argument of perigee: 160.8167°
revolutions per day: 15.00759260
mean anomaly at epoch: 325.4501°
orbit number at epoch: 45331

The dashed part of the orbit path shows where the satellite is in the earth's shadow,  

DLR